ITY490 LIRF-EGGP

Flight info

Callsign ITY490
Flight time N/A
Altitude 38000
Route SOSIV5AXSOVAN1E/25 SOVAN DCT AMTEL DCT NUKNI DCT BIKTU DCT GOXIN DCT ALBET DCT DIKEM DCT IXOGU DCT UNIMI L12 MOGTI DCT KPT DCT VEKIR DCT HAREM/N0450F370 DCT LOHRE/N0447F380 DCT MAPOX DCT SOGPO DCT RAVLO Y70 VEGUS
Aircraft A21N/M-SDE2E3FGHIRWXY/LB1

Departure

Time 2026-05-01 12:49
Airport Rome–Fiumicino Leonardo da Vinci International Airport (LIRF)

Arrival

Time N/A
Airport Liverpool John Lennon Airport (EGGP)
Time Latitude Longitude Altitude Speed Heading
2026-05-01 12:14 41.79651 12.25598 21 ft 0 kts 294°
2026-05-01 12:36 41.79647 12.25611 22 ft 2 kts 294°
2026-05-01 12:36 41.79643 12.25623 52 ft 0 kts 294°
2026-05-01 12:37 41.79636 12.25636 17 ft 3 kts 334°
2026-05-01 12:37 41.79621 12.25638 15 ft 0 kts 21°
2026-05-01 12:41 41.79624 12.25640 21 ft 2 kts 25°
2026-05-01 12:41 41.79643 12.25655 21 ft 4 kts 32°
2026-05-01 12:42 41.79674 12.25683 23 ft 6 kts 34°
2026-05-01 12:42 41.79708 12.25710 22 ft 6 kts 27°
2026-05-01 12:42 41.79745 12.25734 23 ft 6 kts 25°
2026-05-01 12:42 41.79785 12.25758 24 ft 7 kts 24°
2026-05-01 12:43 41.79829 12.25785 21 ft 7 kts 25°
2026-05-01 12:43 41.79871 12.25823 21 ft 7 kts 30°
2026-05-01 12:43 41.79920 12.25852 21 ft 8 kts 24°
2026-05-01 12:43 41.79974 12.25885 21 ft 9 kts 24°
2026-05-01 12:44 41.80035 12.25922 22 ft 10 kts 25°
2026-05-01 12:44 41.80102 12.25965 19 ft 11 kts 25°
2026-05-01 12:44 41.80263 12.26065 16 ft 14 kts 24°
2026-05-01 12:45 41.80447 12.26171 16 ft 14 kts 12°
2026-05-01 12:45 41.80525 12.26227 16 ft 13 kts 71°
2026-05-01 12:45 41.80552 12.26333 19 ft 11 kts 70°
2026-05-01 12:46 41.80579 12.26427 19 ft 11 kts 69°
2026-05-01 12:46 41.80608 12.26530 18 ft 13 kts 69°
2026-05-01 12:46 41.80641 12.26648 17 ft 14 kts 69°
2026-05-01 12:46 41.80676 12.26774 14 ft 15 kts 70°
2026-05-01 12:47 41.80716 12.26918 11 ft 17 kts 70°
2026-05-01 12:47 41.80762 12.27035 12 ft 11 kts 32°
2026-05-01 12:47 41.80837 12.27026 11 ft 11 kts 338°
2026-05-01 12:47 41.80909 12.26989 12 ft 11 kts 339°
2026-05-01 12:48 41.80955 12.26932 13 ft 9 kts 281°
2026-05-01 12:48 41.80949 12.26894 14 ft 0 kts 249°
2026-05-01 12:48 41.80948 12.26894 14 ft 0 kts 249°
2026-05-01 12:48 41.80914 12.26770 12 ft 33 kts 250°
2026-05-01 12:49 41.80762 12.26211 22 ft 94 kts 249°
2026-05-01 12:49 41.80459 12.25126 19 ft 157 kts 250°
2026-05-01 12:49 41.80042 12.23613 312 ft 178 kts 252°
2026-05-01 12:49 41.79616 12.22035 871 ft 181 kts 252°
2026-05-01 12:50 41.79208 12.20422 1456 ft 185 kts 263°
2026-05-01 12:50 41.79379 12.18699 1958 ft 196 kts 300°
2026-05-01 12:50 41.80158 12.17167 2395 ft 207 kts 312°
2026-05-01 12:50 41.81099 12.15643 3036 ft 218 kts 313°
2026-05-01 12:51 41.82106 12.14019 3751 ft 231 kts 313°
2026-05-01 12:51 41.83134 12.12325 4702 ft 234 kts 312°
2026-05-01 12:51 41.85707 12.09777 6287 ft 245 kts 345°
2026-05-01 12:52 41.87413 12.09109 6890 ft 260 kts 348°
2026-05-01 12:52 41.90953 12.07871 8664 ft 266 kts 348°
2026-05-01 12:52 41.92756 12.07241 9619 ft 268 kts 348°
2026-05-01 12:53 41.96483 12.05939 11017 ft 292 kts 348°
2026-05-01 12:53 41.98501 12.05237 11347 ft 315 kts 349°
2026-05-01 12:53 42.00697 12.04472 11682 ft 336 kts 348°
2026-05-01 12:54 42.03026 12.03657 12097 ft 351 kts 348°
2026-05-01 12:54 42.07831 12.01955 13604 ft 360 kts 348°
2026-05-01 12:54 42.10230 12.01101 14418 ft 361 kts 348°
2026-05-01 12:55 42.15130 11.99359 15982 ft 364 kts 349°
2026-05-01 12:55 42.17557 11.98498 16738 ft 366 kts 349°
2026-05-01 12:55 42.20036 11.97620 17424 ft 369 kts 349°
2026-05-01 12:56 42.22529 11.96738 18139 ft 371 kts 349°
2026-05-01 12:56 42.25041 11.95848 18824 ft 373 kts 349°
2026-05-01 12:56 42.27557 11.94955 19403 ft 375 kts 350°
2026-05-01 12:56 42.30068 11.94064 19979 ft 377 kts 350°
2026-05-01 12:57 42.32619 11.93157 20572 ft 379 kts 350°
2026-05-01 12:57 42.37733 11.91337 21715 ft 383 kts 350°
2026-05-01 12:57 42.40323 11.90414 22284 ft 385 kts 351°
2026-05-01 12:58 42.42944 11.89479 22754 ft 389 kts 351°
2026-05-01 12:58 42.45577 11.88541 23308 ft 392 kts 351°
2026-05-01 12:58 42.48201 11.87603 23862 ft 394 kts 351°
2026-05-01 12:59 42.53527 11.85694 24225 ft 396 kts 351°
2026-05-01 12:59 42.56194 11.84737 24269 ft 398 kts 351°
2026-05-01 12:59 42.61568 11.82810 25077 ft 402 kts 351°
2026-05-01 13:00 42.67056 11.80840 25716 ft 410 kts 351°
2026-05-01 13:00 42.69791 11.79855 26143 ft 411 kts 351°
2026-05-01 13:01 42.75315 11.77859 27221 ft 407 kts 350°
2026-05-01 13:01 42.78057 11.76866 27760 ft 405 kts 350°
2026-05-01 13:01 42.83467 11.74908 28761 ft 402 kts 350°
2026-05-01 13:02 42.86177 11.73928 29091 ft 404 kts 350°
2026-05-01 13:07 43.43107 11.59004 34925 ft 395 kts 359°
2026-05-01 13:07 43.45867 11.58764 35075 ft 396 kts 359°
2026-05-01 13:07 43.48595 11.58525 35216 ft 397 kts 359°
2026-05-01 13:08 43.51360 11.58281 35399 ft 397 kts 358°
2026-05-01 13:08 43.54124 11.58036 35591 ft 396 kts 358°
2026-05-01 13:08 43.56856 11.57793 35767 ft 396 kts 358°
2026-05-01 13:08 43.59613 11.57547 35942 ft 395 kts 358°
2026-05-01 13:09 43.62361 11.57302 36082 ft 396 kts 358°
2026-05-01 13:09 43.65089 11.57058 36191 ft 396 kts 358°
2026-05-01 13:09 43.67850 11.56811 36279 ft 398 kts 358°
2026-05-01 13:10 43.73393 11.56316 36303 ft 397 kts 358°
2026-05-01 13:10 43.78882 11.55825 36299 ft 397 kts 358°
2026-05-01 13:11 43.84401 11.55332 36302 ft 397 kts 358°
2026-05-01 13:11 43.89924 11.54838 36317 ft 399 kts 358°
2026-05-01 13:12 43.95452 11.54342 36319 ft 400 kts 358°
2026-05-01 13:12 44.01027 11.54088 36321 ft 398 kts
2026-05-01 13:13 44.06547 11.54483 36323 ft 400 kts
2026-05-01 13:13 44.12135 11.55007 36329 ft 402 kts
2026-05-01 13:14 44.17695 11.55554 36331 ft 402 kts
2026-05-01 13:14 44.23289 11.56094 36331 ft 402 kts
2026-05-01 13:15 44.28896 11.56311 36336 ft 403 kts
2026-05-01 13:15 44.34485 11.56117 36344 ft 403 kts 359°
2026-05-01 13:16 44.40097 11.55847 36343 ft 403 kts 359°
2026-05-01 13:16 44.45693 11.55569 36340 ft 406 kts 359°
2026-05-01 13:17 44.57014 11.55028 36341 ft 406 kts 359°
2026-05-01 13:18 44.65476 11.54627 36347 ft 407 kts 359°
2026-05-01 13:18 44.71135 11.54359 36342 ft 408 kts 359°
2026-05-01 13:19 44.76818 11.54088 36348 ft 408 kts 359°
2026-05-01 13:20 44.85304 11.53683 36346 ft 408 kts 360°
2026-05-01 13:20 44.90999 11.53411 36345 ft 408 kts 360°
2026-05-01 13:21 44.99519 11.53003 36347 ft 409 kts 359°
2026-05-01 13:21 45.05190 11.52731 36353 ft 410 kts 359°
2026-05-01 13:22 45.09953 11.52501 36353 ft 411 kts 359°
2026-05-01 13:22 45.15673 11.52225 36356 ft 411 kts 359°
2026-05-01 13:23 45.21403 11.51948 36358 ft 411 kts 360°
2026-05-01 13:23 45.27104 11.51672 36361 ft 412 kts 360°
2026-05-01 13:24 45.32820 11.51395 36369 ft 412 kts 360°
2026-05-01 13:25 45.41435 11.50965 36368 ft 413 kts 358°
2026-05-01 13:25 45.47127 11.50131 36364 ft 414 kts 355°
2026-05-01 13:26 45.52854 11.49137 36357 ft 414 kts 355°
2026-05-01 13:26 45.58556 11.48109 36361 ft 414 kts 355°
2026-05-01 13:27 45.64293 11.47077 36357 ft 415 kts 355°
2026-05-01 13:27 45.72898 11.45536 36355 ft 416 kts 355°
2026-05-01 13:28 45.81494 11.43996 36353 ft 416 kts 355°
2026-05-01 13:29 45.93002 11.41927 36336 ft 416 kts 355°
2026-05-01 13:31 46.10075 11.37327 36320 ft 420 kts 346°
2026-05-01 13:32 46.24052 11.31188 36307 ft 420 kts 346°
2026-05-01 13:33 46.38082 11.25046 36298 ft 422 kts 347°
2026-05-01 13:34 46.49437 11.20676 36290 ft 423 kts 348°
2026-05-01 13:35 46.57950 11.17431 36296 ft 423 kts 347°
2026-05-01 13:36 46.66479 11.14139 36286 ft 423 kts 347°
2026-05-01 13:36 46.75047 11.10815 36299 ft 424 kts 347°
2026-05-01 13:37 46.80729 11.08606 36289 ft 424 kts 348°
2026-05-01 13:37 46.86399 11.06120 36287 ft 426 kts 340°
2026-05-01 13:38 46.94552 11.00901 36292 ft 427 kts 338°
2026-05-01 13:39 46.99959 10.97326 36290 ft 428 kts 338°
2026-05-01 13:39 47.05413 10.93748 36291 ft 428 kts 338°
2026-05-01 13:40 47.10818 10.90209 36291 ft 428 kts 338°
2026-05-01 13:40 47.16263 10.86638 36289 ft 428 kts 338°
2026-05-01 13:41 47.21680 10.83075 36284 ft 428 kts 338°
2026-05-01 13:41 47.27114 10.79491 36280 ft 428 kts 338°
2026-05-01 13:42 47.32578 10.75879 36287 ft 429 kts 338°
2026-05-01 13:42 47.37979 10.72205 36291 ft 430 kts 333°
2026-05-01 13:43 47.43067 10.67458 36300 ft 432 kts 328°
2026-05-01 13:43 47.48010 10.62450 36297 ft 433 kts 328°
2026-05-01 13:44 47.52963 10.57333 36298 ft 433 kts 327°
2026-05-01 13:44 47.57916 10.52217 36302 ft 433 kts 327°
2026-05-01 13:45 47.62847 10.47131 36308 ft 434 kts 327°
2026-05-01 13:45 47.67808 10.42008 36311 ft 434 kts 327°
2026-05-01 13:46 47.72776 10.36967 36307 ft 433 kts 332°
2026-05-01 13:46 47.74530 10.35559 36308 ft 431 kts 337°